Regional Weather Roundup
Issued by NWS Cleveland, OH

Home | Current Version | Previous Version | Graphics & Text | Print | Product List | Glossary On
Versions: 1 2 3 4 5 6 7 8 9 10 11 12 13 14 15 16 17 18 19 20 21 22 23 24 25 26 27 28 29 30 31 32 33 34 35 36 37 38 39 40 41 42 43 44 45 46 47 48 49 50
000
ASUS41 KCLE 182200
RWRCLE
OHIO REGIONAL WEATHER ROUNDUP
NATIONAL WEATHER SERVICE WILMINGTON, OH
500 PM EST WED JAN 18 2017

NOTE: "FAIR" INDICATES FEW OR NO CLOUDS BELOW 12,000 FEET WITH NO
SIGNIFICANT WEATHER AND/OR OBSTRUCTIONS TO VISIBILITY.

OHZ001>008-015>018-024>027-034-035-043-044-182300-
   NORTHWEST OHIO

CITY           SKY/WX    TMP DP  RH WIND       PRES   REMARKS
DEFIANCE       CLOUDY    35  33  92 W9        30.09S WCI  28
FINDLAY        CLOUDY    38  33  82 SW13      30.09S
TOLEDO EXPRESS CLOUDY    37  35  92 SW13      30.08S
TOLEDO EXEC    CLOUDY    39  36  89 SW14G22   30.09S
LIMA           CLOUDY    36  34  92 SW13      30.09F
$$

OHZ009>014-019>023-028>033-038-089-182300-
   NORTHEAST OHIO

CITY           SKY/WX    TMP DP  RH WIND       PRES   REMARKS
CLE-HOPKINS    CLOUDY    40  36  86 SW9       30.11R FOG
CLE-LAKEFRONT  CLOUDY    39  36  89 SW8       30.09R
CUY CO. ARPT   CLOUDY    39  37  93 W7        30.09R FOG
LORAIN-ELYRIA  CLOUDY    38  34  85 W12       30.10R FOG
ASHTABULA      CLOUDY    37  36  96 W5        30.08R FOG
AKRON-CANTON   CLOUDY    39  34  82 SW7       30.08R
WOOSTER        NOT AVBL
MANSFIELD      CLOUDY    37  37 100 SW10      30.08R FOG
YOUNGSTOWN     CLOUDY    38  34  85 SW8       30.07R
$$

OHZ042-051>053-060>062-070>072-077>081-182300-
  SOUTHWEST OHIO

CITY           SKY/WX    TMP DP  RH WIND       PRES   REMARKS
CINC-COVINGTON CLOUDY    41  36  82 S7        30.14S
CINC-LUNKEN    CLOUDY    42  37  82 SW8       30.16S
HAMILTON       CLOUDY    42  37  82 SW5       30.15S
DAYTON         NOT AVBL
WRIGHT-PAT AFB NOT AVBL
DAYTON GENERAL CLOUDY    39  35  86 SW9       30.11F
WILMINGTON     CLOUDY    38  35  89 W12       30.12R
$$

OHZ036-037-039>041-045>050-054>059-063>069-073>076-082>088-182300-
  CENTRAL AND SOUTHEAST OHIO

CITY           SKY/WX    TMP DP  RH WIND       PRES   REMARKS
COLUMBUS       CLOUDY    40  34  79 SW8       30.12F
OSU AIRPORT    CLOUDY    38  35  89 SW9       30.11F
BOLTON FIELD   CLOUDY    37  36  93 SW10      30.13S
RICKENBACK AFB NOT AVBL
NEWARK         CLOUDY    40  33  76 SW10      30.11F
MARION         CLOUDY    38  34  85 SW10      30.10S
LANCASTER      CLOUDY    40  36  86 W6        30.13F
ZANESVILLE     CLOUDY    40  34  79 W6        30.12S
NEW PHILLY     CLOUDY    40  35  83 SW6       30.11S
$$




USA.gov is the U.S. government's official web portal to all federal, state and local government web resources and services.